sat.trackr.live / text

‹ back to catalog

2025-055F

NORAD 63296 · 2025-055F

PAYLOAD ACTIVE UNKNOWN

§ Identity

Operator
Country
PRC
Launch date
2025-03-17
Launch site
JSC
Launch vehicle
Mass (kg)
RCS (m²)

External: N2YO · Heavens-Above · Gunter

§ Orbital elements

Epoch: 2026-09-22T22:14:53.601792Z

Period
94.87 min
Inclination
97.6647°
Eccentricity
0.0012143
Mean motion
15.17932816 rev/d
Perigee alt
503.7 km
Apogee alt
520.5 km
Semi-major
6,890.2 km
B*
3.3790e-4
RAAN
46.7441°
Arg perigee
143.7802°
Mean anomaly
216.4256°
Rev number
8,382

§ Raw data

2025-055F1 63296U 25055F   26265.92700928  .00006800  00000+0  33790-3 0  99992 63296  97.6647  46.7441 0012143 143.7802 216.4256 15.17932816 83829

JSON: /api/v1/satellites/63296 · /tle

For live sub-satellite position, see the globe view (requires WebGL).

§ Visibility from observer

Set your observer location to see the next 7 days of passes ≥ 10°. The values pass through the URL so the page stays shareable.

No JS? Fill the form by hand. The geolocation button needs JavaScript.